Location: Unspecified
(38.0989°N, 0.6729°W)
Time: 22:38:46
(UTC+01:00)

Hubble Space Telescope - Visible Passes

Search period start: 25 February 2018 00:00
Search period end: 07 March 2018 00:00
Orbit: 537 x 541 km, 28.5° (Epoch: 24 February)

Date Brightness Start Highest point End Pass type
(mag) Time Alt. Az. Time Alt. Az. Time Alt. Az.
25 Feb 2.4 06:07:29 20° SSW 06:08:17 21° S 06:11:25 10° SE visible
26 Feb 2.5 05:57:47 20° S 05:57:55 20° S 06:00:59 10° SE visible
27 Feb 2.7 05:48:06 18° S 05:48:06 18° S 05:50:29 10° SE visible
28 Feb 3.0 05:38:28 15° SSE 05:38:28 15° SSE 05:39:56 10° SSE visible
01 Mar 3.4 05:28:51 12° SSE 05:28:51 12° SSE 05:29:18 10° SSE visible
